Location: Castelnau
(43.6639°N, 0.8431°W)
Time: 19:24:01
(UTC+00:00)

CORIOLIS - Pass Details

Date: 13 January 2026
Orbit: 816 x 835 km, 98.7° (Epoch: 10 February)

Event Time Altitude Azimuth Distance (km) Brightness Sun altitude
Rises 06:19:00 0° 15° (NNE) 3,395 7.3 -13.4°
Reaches altitude 10° 06:21:22 10° 17° (NNE) 2,457 6.6 -13.0°
Maximum altitude 06:26:50 76° 103° (ESE) 862 4.4 -12.1°
Drops below altitude 10° 06:32:14 10° 190° (S) 2,435 6.7 -11.1°
Sets 06:34:35 0° 191° (SSW) 3,362 7.4 -10.7°
